| time (UTC) | temp C | wind direction | speed KPH | gust KPH | rain 1hr cm | rain 24hr cm | rain mn cm | humidity % | barometer mb |
| 20260504013028 | 10 | 226 | 0.0 | 0.0 | 0.00 | 0.00 | 0.00 | 67 | 1013.4 |
| 20260504011521 | 11 | 226 | 0.0 | 0.0 | 0.00 | 0.00 | 0.00 | 61 | 1013.4 |
| 20260504010020 | 12 | 226 | 0.0 | 0.0 | 0.00 | 0.00 | 0.00 | 57 | 1013.4 |
| 20260504004520 | 12 | 228 | 0.0 | 3.2 | 0.00 | 0.00 | 0.00 | 47 | 1013.3 |
| 20260504003018 | 13 | 231 | 0.0 | 1.6 | 0.00 | 0.00 | 0.00 | 45 | 1013.2 |
| 20260504001519 | 13 | 240 | 0.0 | 3.2 | 0.00 | 0.00 | 0.00 | 44 | 1013.3 |
| 20260504000017 | 13 | 252 | 0.0 | 8.0 | 0.00 | 0.00 | 0.00 | 43 | 1013.3 |
| 20260503234517 | 13 | 215 | 0.0 | 9.7 | 0.00 | 0.00 | 0.00 | 44 | 1013.3 |
| 20260503233016 | 14 | 230 | 0.0 | 11.3 | 0.00 | 0.00 | 0.00 | 41 | 1013.3 |
| 20260503231520 | 14 | 232 | 0.0 | 14.5 | 0.00 | 0.00 | 0.00 | 41 | 1013.4 |
| 20260503230016 | 15 | 225 | 1.6 | 16.1 | 0.00 | 0.00 | 0.00 | 40 | 1013.4 |
| 20260503224515 | 15 | 193 | 8.0 | 19.3 | 0.00 | 0.00 | 0.00 | 38 | 1013.4 |
| 20260503223013 | 16 | 254 | 6.4 | 17.7 | 0.00 | 0.00 | 0.00 | 38 | 1013.4 |
| 20260503221513 | 15 | 242 | 1.6 | 19.3 | 0.00 | 0.00 | 0.00 | 37 | 1013.5 |
| 20260503220013 | 15 | 244 | 1.6 | 20.9 | 0.00 | 0.00 | 0.00 | 38 | 1013.5 |
| 20260503214512 | 15 | 229 | 3.2 | 17.7 | 0.00 | 0.00 | 0.00 | 37 | 1013.4 |
| 20260503213011 | 15 | 266 | 4.8 | 24.1 | 0.00 | 0.00 | 0.00 | 36 | 1013.3 |
| 20260503211509 | 15 | 275 | 6.4 | 20.9 | 0.00 | 0.00 | 0.00 | 39 | 1013.4 |
| 20260503210010 | 15 | 235 | 6.4 | 17.7 | 0.00 | 0.00 | 0.00 | 37 | 1013.4 |
| 20260503204507 | 15 | 184 | 11.3 | 33.8 | 0.00 | 0.00 | 0.00 | 37 | 1013.6 |
| 20260503203005 | 15 | 282 | 0.0 | 22.5 | 0.00 | 0.00 | 0.00 | 38 | 1013.7 |
| 20260503201504 | 15 | 243 | 1.6 | 24.1 | 0.00 | 0.00 | 0.00 | 40 | 1014.0 |
| 20260503200003 | 15 | 268 | 4.8 | 22.5 | 0.00 | 0.00 | 0.00 | 39 | 1014.3 |
| 20260503194601 | 15 | 263 | 0.0 | 16.1 | 0.00 | 0.00 | 0.00 | 40 | 1014.4 |
| 20260503193111 | 15 | 209 | 0.0 | 22.5 | 0.00 | 0.00 | 0.00 | 41 | 1014.7 |
| 20260503191559 | 15 | 195 | 8.0 | 20.9 | 0.00 | 0.00 | 0.00 | 39 | 1014.9 |
| 20260503190106 | 15 | 315 | 8.0 | 25.7 | 0.00 | 0.00 | 0.00 | 39 | 1015.2 |
| 20260503184553 | 15 | 275 | 9.7 | 24.1 | 0.00 | 0.00 | 0.00 | 41 | 1015.4 |
| 20260503183059 | 15 | 314 | 8.0 | 32.2 | 0.00 | 0.00 | 0.00 | 41 | 1015.5 |
| 20260503181549 | 15 | 256 | 8.0 | 24.1 | 0.00 | 0.00 | 0.00 | 41 | 1015.6 |
| 20260503180055 | 14 | 197 | 4.8 | 19.3 | 0.00 | 0.00 | 0.00 | 42 | 1015.8 |
| 20260503174544 | 14 | 198 | 4.8 | 24.1 | 0.00 | 0.00 | 0.00 | 42 | 1016.2 |
| 20260503173104 | 14 | 250 | 4.8 | 19.3 | 0.00 | 0.00 | 0.00 | 42 | 1016.3 |
| 20260503171546 | 13 | 224 | 4.8 | 25.7 | 0.00 | 0.00 | 0.00 | 43 | 1016.4 |
| 20260503081502 | -1 | 300 | 0.0 | 0.0 | 0.00 | 0.03 | 0.00 | 85 | 1017.1 |
| 20260503071607 | 0 | 300 | 0.0 | 0.0 | 0.00 | 0.03 | 0.00 | 84 | 1016.9 |
| 20260503054545 | 1 | 300 | 0.0 | 0.0 | 0.00 | 0.03 | 0.00 | 84 | 1017.1 |
| 20260503053046 | 1 | 300 | 0.0 | 0.0 | 0.00 | 0.03 | 0.00 | 84 | 1017.2 |
| 20260503051550 | 1 | 300 | 0.0 | 0.0 | 0.00 | 0.03 | 0.00 | 84 | 1017.2 |
| 20260503050042 | 1 | 300 | 0.0 | 0.0 | 0.00 | 0.03 | 0.00 | 84 | 1017.3 |
| 20260503044541 | 1 | 300 | 0.0 | 0.0 | 0.00 | 0.03 | 0.00 | 84 | 1017.4 |
| 20260503043039 | 1 | 300 | 0.0 | 0.0 | 0.00 | 0.03 | 0.00 | 83 | 1017.4 |
| 20260503041539 | 1 | 300 | 0.0 | 0.0 | 0.00 | 0.03 | 0.00 | 83 | 1017.4 |
| 20260503040037 | 1 | 300 | 0.0 | 0.0 | 0.00 | 0.03 | 0.00 | 83 | 1017.5 |
| 20260503034537 | 1 | 300 | 0.0 | 0.0 | 0.00 | 0.03 | 0.03 | 82 | 1017.5 |
| 20260503033043 | 1 | 300 | 0.0 | 0.0 | 0.00 | 0.03 | 0.03 | 82 | 1017.5 |
| 20260503031535 | 2 | 300 | 0.0 | 0.0 | 0.00 | 0.03 | 0.03 | 81 | 1017.4 |
| 20260503030035 | 2 | 300 | 0.0 | 0.0 | 0.00 | 0.03 | 0.03 | 80 | 1017.5 |
| 20260503024537 | 2 | 300 | 0.0 | 0.0 | 0.00 | 0.03 | 0.03 | 80 | 1017.5 |
| 20260503023033 | 3 | 300 | 0.0 | 0.0 | 0.00 | 0.03 | 0.03 | 80 | 1017.6 |
| 20260503021533 | 3 | 300 | 0.0 | 0.0 | 0.00 | 0.03 | 0.03 | 79 | 1017.6 |
| 20260503020034 | 3 | 300 | 0.0 | 0.0 | 0.00 | 0.03 | 0.03 | 79 | 1017.6 |
| 20260503014549 | 3 | 300 | 0.0 | 0.0 | 0.00 | 0.03 | 0.03 | 78 | 1017.6 |